Time,TemperatureF,DewpointF,PressureIn,WindDirection,WindDirectionDegrees,WindSpeedMPH,WindSpeedGustMPH,Humidity,HourlyPrecipIn,Conditions,Clouds,dailyrainin,SoftwareType,DateUTC
2013-01-10 00:00:00,35.6,16.3,30.05,NNE,30,0.0,0.0,45,0.00,,,0.00,Wunderground v.1.15,2013-01-10 07:00:00,
2013-01-10 00:10:00,35.5,16.7,30.03,NE,40,0.0,0.0,46,0.00,,,0.00,Wunderground v.1.15,2013-01-10 07:10:00,
2013-01-10 00:15:00,35.4,16.6,30.03,East,86,0.0,0.0,46,0.00,,,0.00,Wunderground v.1.15,2013-01-10 07:15:00,
2013-01-10 00:20:00,35.3,16.6,30.03,NE,37,0.0,0.0,46,0.00,,,0.00,Wunderground v.1.15,2013-01-10 07:20:00,
2013-01-10 00:25:00,35.2,17.4,30.03,NE,37,0.0,0.0,48,0.00,,,0.00,Wunderground v.1.15,2013-01-10 07:25:00,
2013-01-10 00:30:00,35.2,16.5,30.02,NE,34,0.0,0.0,46,0.00,,,0.00,Wunderground v.1.15,2013-01-10 07:30:00,
2013-01-10 00:35:00,35.1,16.4,30.02,NNE,24,0.0,0.0,46,0.00,,,0.00,Wunderground v.1.15,2013-01-10 07:35:00,
2013-01-10 00:45:00,34.9,16.2,30.02,NNE,24,0.0,0.0,46,0.00,,,0.00,Wunderground v.1.15,2013-01-10 07:45:00,
2013-01-10 00:50:00,34.7,16.0,30.02,NNE,24,0.0,0.0,46,0.00,,,0.00,Wunderground v.1.15,2013-01-10 07:50:00,
2013-01-10 00:55:00,34.6,15.9,30.02,NNE,24,0.0,0.0,46,0.00,,,0.00,Wunderground v.1.15,2013-01-10 07:55:00,
2013-01-10 01:05:00,34.4,16.2,30.03,NNE,22,0.0,0.0,47,0.00,,,0.00,Wunderground v.1.15,2013-01-10 08:05:00,
2013-01-10 01:15:00,34.0,15.9,30.03,NNE,23,0.0,0.0,47,0.00,,,0.00,Wunderground v.1.15,2013-01-10 08:15:00,
2013-01-10 01:20:00,33.9,16.3,30.02,NNE,26,0.0,0.0,48,0.00,,,0.00,Wunderground v.1.15,2013-01-10 08:20:00,
2013-01-10 01:30:00,33.5,15.9,30.02,North,11,0.0,0.0,48,0.00,,,0.00,Wunderground v.1.15,2013-01-10 08:30:00,
2013-01-10 01:35:00,33.4,15.8,30.02,NNE,12,0.0,0.0,48,0.00,,,0.00,Wunderground v.1.15,2013-01-10 08:35:00,
2013-01-10 01:45:00,33.2,16.1,30.02,NNE,14,0.0,0.0,49,0.00,,,0.00,Wunderground v.1.15,2013-01-10 08:45:00,
2013-01-10 01:50:00,33.1,16.0,30.02,NNE,14,0.0,0.0,49,0.00,,,0.00,Wunderground v.1.15,2013-01-10 08:50:00,
2013-01-10 02:00:00,33.0,15.9,30.02,NNE,15,0.0,0.0,49,0.00,,,0.00,Wunderground v.1.15,2013-01-10 09:00:00,
2013-01-10 02:05:00,32.9,15.8,30.03,NNE,15,0.0,0.0,49,0.00,,,0.00,Wunderground v.1.15,2013-01-10 09:05:00,
2013-01-10 02:15:00,32.8,15.7,30.03,NE,35,0.0,0.0,49,0.00,,,0.00,Wunderground v.1.15,2013-01-10 09:15:00,
2013-01-10 02:25:00,32.7,15.6,30.03,NE,36,0.0,0.0,49,0.00,,,0.00,Wunderground v.1.15,2013-01-10 09:25:00,
2013-01-10 02:30:00,32.6,15.5,30.03,NNE,30,0.0,0.0,49,0.00,,,0.00,Wunderground v.1.15,2013-01-10 09:30:00,
2013-01-10 02:35:00,32.5,15.4,30.03,NNE,30,0.0,0.0,49,0.00,,,0.00,Wunderground v.1.15,2013-01-10 09:35:00,
2013-01-10 02:40:00,32.4,15.8,30.03,NNE,30,0.0,0.0,50,0.00,,,0.00,Wunderground v.1.15,2013-01-10 09:40:00,
2013-01-10 02:45:00,32.3,15.7,30.03,ENE,61,0.0,0.0,50,0.00,,,0.00,Wunderground v.1.15,2013-01-10 09:45:00,
2013-01-10 02:55:00,32.1,15.5,30.03,ENE,59,0.0,0.0,50,0.00,,,0.00,Wunderground v.1.15,2013-01-10 09:55:00,
2013-01-10 03:00:00,32.0,15.4,30.03,NE,47,0.0,0.0,50,0.00,,,0.00,Wunderground v.1.15,2013-01-10 10:00:00,
2013-01-10 03:05:00,32.1,15.5,30.04,ENE,62,0.0,0.0,50,0.00,,,0.00,Wunderground v.1.15,2013-01-10 10:05:00,
2013-01-10 03:15:00,32.5,15.9,30.05,NE,38,0.0,0.0,50,0.00,,,0.00,Wunderground v.1.15,2013-01-10 10:15:00,
2013-01-10 03:20:00,32.6,16.0,30.04,ENE,59,0.0,0.0,50,0.00,,,0.00,Wunderground v.1.15,2013-01-10 10:20:00,
2013-01-10 03:25:00,32.8,15.7,30.04,ENE,63,0.0,0.0,49,0.00,,,0.00,Wunderground v.1.15,2013-01-10 10:25:00,
2013-01-10 03:30:00,32.9,15.8,30.04,ENE,61,0.0,0.0,49,0.00,,,0.00,Wunderground v.1.15,2013-01-10 10:30:00,
2013-01-10 05:00:00,33.7,16.1,30.01,NE,49,0.0,3.0,48,0.00,,,0.00,Wunderground v.1.15,2013-01-10 12:00:00,
2013-01-10 05:05:00,33.6,16.0,30.04,NE,49,0.0,3.0,48,0.00,,,0.00,Wunderground v.1.15,2013-01-10 12:05:00,
2013-01-10 05:15:00,33.5,15.9,30.04,ENE,67,0.0,0.0,48,0.00,,,0.00,Wunderground v.1.15,2013-01-10 12:15:00,
2013-01-10 05:20:00,33.5,15.9,30.04,ENE,63,0.0,0.0,48,0.00,,,0.00,Wunderground v.1.15,2013-01-10 12:20:00,
2013-01-10 05:30:00,33.5,15.9,30.05,ENE,63,0.0,0.0,48,0.00,,,0.00,Wunderground v.1.15,2013-01-10 12:30:00,
2013-01-10 05:35:00,33.4,16.3,30.05,ENE,63,0.0,0.0,49,0.00,,,0.00,Wunderground v.1.15,2013-01-10 12:35:00,
2013-01-10 05:40:00,33.3,16.2,30.05,ENE,63,0.0,0.0,49,0.00,,,0.00,Wunderground v.1.15,2013-01-10 12:40:00,
2013-01-10 05:50:00,32.8,16.2,30.05,ENE,63,0.0,0.0,50,0.00,,,0.00,Wunderground v.1.15,2013-01-10 12:50:00,
2013-01-10 05:55:00,32.5,15.9,30.05,ENE,63,0.0,0.0,50,0.00,,,0.00,Wunderground v.1.15,2013-01-10 12:55:00,
2013-01-10 06:00:00,32.2,15.6,30.06,ENE,63,0.0,0.0,50,0.00,,,0.00,Wunderground v.1.15,2013-01-10 13:00:00,
2013-01-10 06:05:00,31.9,15.8,30.07,ENE,63,0.0,0.0,51,0.00,,,0.00,Wunderground v.1.15,2013-01-10 13:05:00,
2013-01-10 06:15:00,31.2,15.6,30.08,ENE,63,0.0,0.0,52,0.00,,,0.00,Wunderground v.1.15,2013-01-10 13:15:00,
2013-01-10 06:20:00,31.0,15.4,30.09,ENE,63,0.0,0.0,52,0.00,,,0.00,Wunderground v.1.15,2013-01-10 13:20:00,
2013-01-10 06:25:00,30.7,15.1,30.08,ENE,63,0.0,0.0,52,0.00,,,0.00,Wunderground v.1.15,2013-01-10 13:25:00,
2013-01-10 06:30:00,30.4,15.3,30.08,ENE,63,0.0,0.0,53,0.00,,,0.00,Wunderground v.1.15,2013-01-10 13:30:00,
2013-01-10 06:35:00,30.1,15.4,30.08,ENE,63,0.0,0.0,54,0.00,,,0.00,Wunderground v.1.15,2013-01-10 13:35:00,
2013-01-10 06:40:00,30.0,15.3,30.08,ENE,63,0.0,0.0,54,0.00,,,0.00,Wunderground v.1.15,2013-01-10 13:40:00,
2013-01-10 06:50:00,29.7,15.1,30.09,ENE,63,0.0,0.0,54,0.00,,,0.00,Wunderground v.1.15,2013-01-10 13:50:00,
2013-01-10 06:55:00,29.6,15.4,30.09,ENE,63,0.0,0.0,55,0.00,,,0.00,Wunderground v.1.15,2013-01-10 13:55:00,
2013-01-10 07:00:00,29.4,15.2,30.10,ENE,63,0.0,0.0,55,0.00,,,0.00,Wunderground v.1.15,2013-01-10 14:00:00,
2013-01-10 07:10:00,29.2,15.4,30.13,ENE,63,0.0,0.0,56,0.00,,,0.00,Wunderground v.1.15,2013-01-10 14:10:00,
2013-01-10 07:15:00,29.1,15.3,30.13,ENE,63,0.0,0.0,56,0.00,,,0.00,Wunderground v.1.15,2013-01-10 14:15:00,
2013-01-10 07:20:00,29.0,15.2,30.13,ENE,63,0.0,0.0,56,0.00,,,0.00,Wunderground v.1.15,2013-01-10 14:20:00,
2013-01-10 07:25:00,28.9,15.2,30.12,ENE,63,0.0,0.0,56,0.00,,,0.00,Wunderground v.1.15,2013-01-10 14:25:00,
2013-01-10 07:30:00,28.8,15.5,30.13,ENE,63,0.0,0.0,57,0.00,,,0.00,Wunderground v.1.15,2013-01-10 14:30:00,
2013-01-10 07:40:00,28.8,15.5,30.13,ENE,63,0.0,0.0,57,0.00,,,0.00,Wunderground v.1.15,2013-01-10 14:40:00,
2013-01-10 07:45:00,28.8,15.5,30.13,ENE,63,0.0,0.0,57,0.00,,,0.00,Wunderground v.1.15,2013-01-10 14:45:00,
2013-01-10 07:50:00,28.9,15.6,30.13,ENE,63,0.0,0.0,57,0.00,,,0.00,Wunderground v.1.15,2013-01-10 14:50:00,
2013-01-10 07:55:00,29.1,15.7,30.13,ENE,63,0.0,0.0,57,0.00,,,0.00,Wunderground v.1.15,2013-01-10 14:55:00,
2013-01-10 08:00:00,29.3,16.3,30.13,ENE,63,0.0,0.0,58,0.00,,,0.00,Wunderground v.1.15,2013-01-10 15:00:00,
2013-01-10 08:05:00,29.7,16.7,30.13,ENE,63,0.0,0.0,58,0.00,,,0.00,Wunderground v.1.15,2013-01-10 15:05:00,
2013-01-10 08:15:00,30.6,17.6,30.13,ENE,63,0.0,0.0,58,0.00,,,0.00,Wunderground v.1.15,2013-01-10 15:15:00,
2013-01-10 08:20:00,30.9,17.8,30.14,ENE,63,0.0,0.0,58,0.00,,,0.00,Wunderground v.1.15,2013-01-10 15:20:00,
2013-01-10 08:25:00,31.5,18.8,30.12,ENE,63,0.0,0.0,59,0.00,,,0.00,Wunderground v.1.15,2013-01-10 15:25:00,
2013-01-10 08:30:00,32.3,19.2,30.13,ENE,63,0.0,0.0,58,0.00,,,0.00,Wunderground v.1.15,2013-01-10 15:30:00,
2013-01-10 08:35:00,33.2,20.0,30.13,ENE,63,0.0,0.0,58,0.00,,,0.00,Wunderground v.1.15,2013-01-10 15:35:00,
2013-01-10 08:45:00,36.4,20.9,30.11,ENE,63,0.0,0.0,53,0.00,,,0.00,Wunderground v.1.15,2013-01-10 15:45:00,
2013-01-10 08:50:00,37.8,21.3,30.10,ENE,63,0.0,0.0,51,0.00,,,0.00,Wunderground v.1.15,2013-01-10 15:50:00,
2013-01-10 08:55:00,39.1,21.5,30.11,ENE,63,0.0,0.0,49,0.00,,,0.00,Wunderground v.1.15,2013-01-10 15:55:00,
2013-01-10 09:00:00,40.1,21.5,30.10,NE,55,0.0,0.0,47,0.00,,,0.00,Wunderground v.1.15,2013-01-10 16:00:00,
2013-01-10 09:10:00,41.5,21.2,30.09,NE,55,0.0,1.0,44,0.00,,,0.00,Wunderground v.1.15,2013-01-10 16:10:00,
2013-01-10 09:15:00,42.0,21.1,30.09,NE,55,0.0,1.0,43,0.00,,,0.00,Wunderground v.1.15,2013-01-10 16:15:00,
2013-01-10 09:20:00,42.5,21.0,30.08,NE,55,0.0,0.0,42,0.00,,,0.00,Wunderground v.1.15,2013-01-10 16:20:00,
2013-01-10 09:30:00,43.2,21.1,30.08,ENE,74,0.0,0.0,41,0.00,,,0.00,Wunderground v.1.15,2013-01-10 16:30:00,
2013-01-10 09:35:00,43.7,21.5,30.08,ENE,74,0.0,0.0,41,0.00,,,0.00,Wunderground v.1.15,2013-01-10 16:35:00,
2013-01-10 09:40:00,44.1,21.3,30.08,ENE,74,0.0,0.0,40,0.00,,,0.00,Wunderground v.1.15,2013-01-10 16:40:00,
2013-01-10 09:45:00,44.5,21.0,30.08,ENE,74,0.0,0.0,39,0.00,,,0.00,Wunderground v.1.15,2013-01-10 16:45:00,
2013-01-10 09:55:00,45.3,21.2,30.08,ENE,74,0.0,1.0,38,0.00,,,0.00,Wunderground v.1.15,2013-01-10 16:55:00,
2013-01-10 10:00:00,45.8,21.6,30.08,WNW,296,1.0,1.0,38,0.00,,,0.00,Wunderground v.1.15,2013-01-10 17:00:00,
2013-01-10 10:05:00,46.1,21.2,30.08,NNE,13,0.0,1.0,37,0.00,,,0.00,Wunderground v.1.15,2013-01-10 17:05:00,
2013-01-10 10:15:00,47.1,21.5,30.08,West,267,0.0,1.0,36,0.00,,,0.00,Wunderground v.1.15,2013-01-10 17:15:00,
2013-01-10 10:20:00,47.6,21.9,30.07,SE,137,0.0,0.0,36,0.00,,,0.00,Wunderground v.1.15,2013-01-10 17:20:00,
2013-01-10 10:25:00,48.1,21.7,30.07,SE,135,0.0,0.0,35,0.00,,,0.00,Wunderground v.1.15,2013-01-10 17:25:00,
2013-01-10 10:30:00,48.8,21.6,30.06,SE,136,0.0,0.0,34,0.00,,,0.00,Wunderground v.1.15,2013-01-10 17:30:00,
2013-01-10 10:35:00,49.2,21.3,30.06,ESE,107,0.0,1.0,33,0.00,,,0.00,Wunderground v.1.15,2013-01-10 17:35:00,
2013-01-10 10:45:00,50.4,21.6,30.04,East,96,0.0,0.0,32,0.00,,,0.00,Wunderground v.1.15,2013-01-10 17:45:00,
2013-01-10 10:50:00,51.1,22.2,30.04,East,95,0.0,1.0,32,0.00,,,0.00,Wunderground v.1.15,2013-01-10 17:50:00,
2013-01-10 10:55:00,51.7,22.0,30.03,East,88,0.0,1.0,31,0.00,,,0.00,Wunderground v.1.15,2013-01-10 17:55:00,
2013-01-10 11:00:00,52.2,22.4,30.02,SE,130,0.0,0.0,31,0.00,,,0.00,Wunderground v.1.15,2013-01-10 18:00:00,
2013-01-10 11:10:00,52.9,22.3,30.02,SE,126,0.0,0.0,30,0.00,,,0.00,Wunderground v.1.15,2013-01-10 18:10:00,
2013-01-10 11:15:00,53.3,22.6,30.03,SE,125,0.0,0.0,30,0.00,,,0.00,Wunderground v.1.15,2013-01-10 18:15:00,
2013-01-10 11:20:00,53.5,22.8,30.02,SE,128,0.0,0.0,30,0.00,,,0.00,Wunderground v.1.15,2013-01-10 18:20:00,
2013-01-10 11:25:00,53.8,23.1,30.01,ESE,103,0.0,0.0,30,0.00,,,0.00,Wunderground v.1.15,2013-01-10 18:25:00,
2013-01-10 11:35:00,54.4,23.6,30.01,ESE,119,0.0,1.0,30,0.00,,,0.00,Wunderground v.1.15,2013-01-10 18:35:00,
2013-01-10 11:40:00,54.5,23.7,30.00,South,186,0.0,0.0,30,0.00,,,0.00,Wunderground v.1.15,2013-01-10 18:40:00,
2013-01-10 11:45:00,54.5,24.4,30.00,ESE,122,0.0,0.0,31,0.00,,,0.00,Wunderground v.1.15,2013-01-10 18:45:00,
2013-01-10 11:55:00,54.6,23.7,29.99,ESE,115,0.0,0.0,30,0.00,,,0.00,Wunderground v.1.15,2013-01-10 18:55:00,
2013-01-10 12:00:00,54.8,24.7,29.97,ESE,113,0.0,1.0,31,0.00,,,0.00,Wunderground v.1.15,2013-01-10 19:00:00,
2013-01-10 12:05:00,54.8,24.7,29.99,North,360,0.0,1.0,31,0.00,,,0.00,Wunderground v.1.15,2013-01-10 19:05:00,
2013-01-10 12:15:00,54.6,24.5,29.99,SW,214,0.0,0.0,31,0.00,,,0.00,Wunderground v.1.15,2013-01-10 19:15:00,
2013-01-10 12:25:00,54.0,24.8,29.98,SSE,157,0.0,0.0,32,0.00,,,0.00,Wunderground v.1.15,2013-01-10 19:25:00,
2013-01-10 12:30:00,53.8,23.8,29.97,South,174,0.0,0.0,31,0.00,,,0.00,Wunderground v.1.15,2013-01-10 19:30:00,
2013-01-10 12:35:00,53.5,24.3,29.97,South,182,0.0,0.0,32,0.00,,,0.00,Wunderground v.1.15,2013-01-10 19:35:00,
2013-01-10 12:40:00,53.0,23.9,29.98,East,98,0.0,0.0,32,0.00,,,0.00,Wunderground v.1.15,2013-01-10 19:40:00,
2013-01-10 12:50:00,52.3,24.7,29.97,ESE,109,0.0,0.0,34,0.00,,,0.00,Wunderground v.1.15,2013-01-10 19:50:00,
2013-01-10 12:55:00,51.8,24.3,29.97,ESE,103,0.0,0.0,34,0.00,,,0.00,Wunderground v.1.15,2013-01-10 19:55:00,
2013-01-10 13:00:00,51.5,24.7,29.97,ESE,103,0.0,0.0,35,0.00,,,0.00,Wunderground v.1.15,2013-01-10 20:00:00,
2013-01-10 13:05:00,51.2,24.5,29.98,East,93,0.0,0.0,35,0.00,,,0.00,Wunderground v.1.15,2013-01-10 20:05:00,
2013-01-10 13:15:00,50.7,24.7,29.98,East,92,0.0,0.0,36,0.00,,,0.00,Wunderground v.1.15,2013-01-10 20:15:00,
2013-01-10 13:20:00,50.6,24.6,29.98,East,94,0.0,0.0,36,0.00,,,0.00,Wunderground v.1.15,2013-01-10 20:20:00,
2013-01-10 13:25:00,50.4,24.4,29.99,East,95,0.0,0.0,36,0.00,,,0.00,Wunderground v.1.15,2013-01-10 20:25:00,
2013-01-10 13:35:00,50.3,25.0,29.99,SE,134,0.0,0.0,37,0.00,,,0.00,Wunderground v.1.15,2013-01-10 20:35:00,
2013-01-10 13:40:00,50.2,25.5,29.97,SE,133,1.0,1.0,38,0.00,,,0.00,Wunderground v.1.15,2013-01-10 20:40:00,
2013-01-10 13:45:00,50.2,25.5,29.97,SE,134,0.0,1.0,38,0.00,,,0.00,Wunderground v.1.15,2013-01-10 20:45:00,
2013-01-10 13:50:00,50.3,26.3,29.96,SE,128,0.0,0.0,39,0.00,,,0.00,Wunderground v.1.15,2013-01-10 20:50:00,
2013-01-10 13:55:00,50.3,26.3,29.96,SE,132,0.0,0.0,39,0.00,,,0.00,Wunderground v.1.15,2013-01-10 20:55:00,
2013-01-10 14:00:00,50.5,25.8,29.95,SE,127,0.0,0.0,38,0.00,,,0.00,Wunderground v.1.15,2013-01-10 21:00:00,
2013-01-10 14:10:00,50.9,26.2,29.96,SE,142,0.0,1.0,38,0.00,,,0.00,Wunderground v.1.15,2013-01-10 21:10:00,
2013-01-10 14:15:00,51.0,26.3,29.95,SE,129,0.0,1.0,38,0.00,,,0.00,Wunderground v.1.15,2013-01-10 21:15:00,
2013-01-10 14:20:00,51.3,26.5,29.95,SE,136,0.0,0.0,38,0.00,,,0.00,Wunderground v.1.15,2013-01-10 21:20:00,
2013-01-10 14:25:00,51.5,26.7,29.94,ESE,123,1.0,1.0,38,0.00,,,0.00,Wunderground v.1.15,2013-01-10 21:25:00,
2013-01-10 14:35:00,52.0,27.1,29.94,ESE,123,0.0,1.0,38,0.00,,,0.00,Wunderground v.1.15,2013-01-10 21:35:00,
2013-01-10 14:40:00,52.8,27.9,29.94,ESE,123,0.0,1.0,38,0.00,,,0.00,Wunderground v.1.15,2013-01-10 21:40:00,
2013-01-10 14:45:00,53.4,27.8,29.94,ESE,105,1.0,1.0,37,0.00,,,0.00,Wunderground v.1.15,2013-01-10 21:45:00,
2013-01-10 14:55:00,54.1,28.4,29.92,ESE,115,0.0,1.0,37,0.00,,,0.00,Wunderground v.1.15,2013-01-10 21:55:00,
2013-01-10 15:05:00,54.1,28.4,29.91,East,96,0.0,0.0,37,0.00,,,0.00,Wunderground v.1.15,2013-01-10 22:05:00,
2013-01-10 15:15:00,54.7,28.2,29.91,ESE,104,0.0,0.0,36,0.00,,,0.00,Wunderground v.1.15,2013-01-10 22:15:00,
2013-01-10 15:25:00,55.0,28.5,29.90,East,94,0.0,1.0,36,0.00,,,0.00,Wunderground v.1.15,2013-01-10 22:25:00,
2013-01-10 15:30:00,55.1,29.3,29.90,ESE,103,0.0,0.0,37,0.00,,,0.00,Wunderground v.1.15,2013-01-10 22:30:00,
2013-01-10 15:40:00,55.5,29.0,29.89,SE,137,0.0,0.0,36,0.00,,,0.00,Wunderground v.1.15,2013-01-10 22:40:00,
2013-01-10 15:45:00,55.6,29.0,29.89,ESE,104,0.0,0.0,36,0.00,,,0.00,Wunderground v.1.15,2013-01-10 22:45:00,
2013-01-10 15:55:00,55.2,28.7,29.89,NE,50,0.0,0.0,36,0.00,,,0.00,Wunderground v.1.15,2013-01-10 22:55:00,
2013-01-10 16:00:00,54.9,29.1,29.89,ESE,108,0.0,0.0,37,0.00,,,0.00,Wunderground v.1.15,2013-01-10 23:00:00,
2013-01-10 16:05:00,54.7,28.9,29.89,ESE,114,0.0,0.0,37,0.00,,,0.00,Wunderground v.1.15,2013-01-10 23:05:00,
2013-01-10 16:15:00,54.2,29.1,29.89,East,98,0.0,0.0,38,0.00,,,0.00,Wunderground v.1.15,2013-01-10 23:15:00,
2013-01-10 16:20:00,54.0,28.9,29.88,East,95,0.0,0.0,38,0.00,,,0.00,Wunderground v.1.15,2013-01-10 23:20:00,
2013-01-10 16:25:00,53.8,28.8,29.88,ESE,113,0.0,0.0,38,0.00,,,0.00,Wunderground v.1.15,2013-01-10 23:25:00,
2013-01-10 16:30:00,53.6,29.2,29.88,SE,126,0.0,0.0,39,0.00,,,0.00,Wunderground v.1.15,2013-01-10 23:30:00,
2013-01-10 16:35:00,53.5,29.1,29.88,ESE,113,0.0,0.0,39,0.00,,,0.00,Wunderground v.1.15,2013-01-10 23:35:00,
2013-01-10 16:45:00,53.4,29.0,29.89,SE,126,0.0,0.0,39,0.00,,,0.00,Wunderground v.1.15,2013-01-10 23:45:00,
2013-01-10 16:55:00,53.1,29.4,29.88,SE,144,0.0,0.0,40,0.00,,,0.00,Wunderground v.1.15,2013-01-10 23:55:00,
2013-01-10 17:00:00,52.9,29.2,29.88,ESE,117,0.0,0.0,40,0.00,,,0.00,Wunderground v.1.15,2013-01-11 00:00:00,
2013-01-10 17:10:00,52.5,29.5,29.88,ESE,121,0.0,0.0,41,0.00,,,0.00,Wunderground v.1.15,2013-01-11 00:10:00,
2013-01-10 17:15:00,52.3,29.3,29.88,ESE,120,0.0,0.0,41,0.00,,,0.00,Wunderground v.1.15,2013-01-11 00:15:00,
2013-01-10 17:25:00,51.7,28.7,29.88,ESE,113,0.0,1.0,41,0.00,,,0.00,Wunderground v.1.15,2013-01-11 00:25:00,
2013-01-10 17:30:00,51.3,29.0,29.89,SE,129,0.0,0.0,42,0.00,,,0.00,Wunderground v.1.15,2013-01-11 00:30:00,
2013-01-10 17:35:00,51.0,28.7,29.89,SSE,159,0.0,0.0,42,0.00,,,0.00,Wunderground v.1.15,2013-01-11 00:35:00,
2013-01-10 17:40:00,50.8,28.5,29.89,SSE,157,0.0,0.0,42,0.00,,,0.00,Wunderground v.1.15,2013-01-11 00:40:00,
2013-01-10 17:50:00,50.4,28.1,29.89,SSE,151,0.0,0.0,42,0.00,,,0.00,Wunderground v.1.15,2013-01-11 00:50:00,
2013-01-10 18:00:00,49.9,27.7,29.89,SE,142,0.0,0.0,42,0.00,,,0.00,Wunderground v.1.15,2013-01-11 01:00:00,
2013-01-10 18:05:00,49.5,27.9,29.91,SE,141,0.0,0.0,43,0.00,,,0.00,Wunderground v.1.15,2013-01-11 01:05:00,
2013-01-10 18:15:00,49.0,27.5,29.91,SE,138,0.0,0.0,43,0.00,,,0.00,Wunderground v.1.15,2013-01-11 01:15:00,
2013-01-10 18:20:00,48.8,27.3,29.91,SSE,148,0.0,2.0,43,0.00,,,0.00,Wunderground v.1.15,2013-01-11 01:20:00,
2013-01-10 18:25:00,48.7,27.2,29.91,SSE,148,0.0,2.0,43,0.00,,,0.00,Wunderground v.1.15,2013-01-11 01:25:00,
2013-01-10 18:30:00,48.6,27.6,29.91,SSE,148,0.0,0.0,44,0.00,,,0.00,Wunderground v.1.15,2013-01-11 01:30:00,
2013-01-10 18:40:00,48.5,27.6,29.92,SE,144,0.0,0.0,44,0.00,,,0.00,Wunderground v.1.15,2013-01-11 01:40:00,
2013-01-10 18:45:00,48.5,27.6,29.92,SE,145,0.0,0.0,44,0.00,,,0.00,Wunderground v.1.15,2013-01-11 01:45:00,
2013-01-10 18:50:00,48.5,27.6,29.92,SE,140,0.0,0.0,44,0.00,,,0.00,Wunderground v.1.15,2013-01-11 01:50:00,
2013-01-10 18:55:00,48.4,27.5,29.92,SE,137,0.0,0.0,44,0.00,,,0.00,Wunderground v.1.15,2013-01-11 01:55:00,
2013-01-10 19:00:00,48.3,27.9,29.92,SE,137,0.0,0.0,45,0.00,,,0.00,Wunderground v.1.15,2013-01-11 02:00:00,
2013-01-10 19:10:00,48.1,28.3,29.92,SE,136,0.0,0.0,46,0.00,,,0.00,Wunderground v.1.15,2013-01-11 02:10:00,
2013-01-10 19:15:00,47.9,28.1,29.92,SE,138,0.0,0.0,46,0.00,,,0.00,Wunderground v.1.15,2013-01-11 02:15:00,
2013-01-10 19:20:00,47.8,28.0,29.92,SE,137,0.0,0.0,46,0.00,,,0.00,Wunderground v.1.15,2013-01-11 02:20:00,
2013-01-10 19:25:00,47.7,27.9,29.92,SE,138,0.0,0.0,46,0.00,,,0.00,Wunderground v.1.15,2013-01-11 02:25:00,
2013-01-10 19:35:00,47.4,28.2,29.93,SE,138,0.0,0.0,47,0.00,,,0.00,Wunderground v.1.15,2013-01-11 02:35:00,
2013-01-10 19:40:00,47.2,28.0,29.93,SE,138,0.0,0.0,47,0.00,,,0.00,Wunderground v.1.15,2013-01-11 02:40:00,
2013-01-10 19:50:00,46.6,28.4,29.93,SE,137,0.0,0.0,49,0.00,,,0.00,Wunderground v.1.15,2013-01-11 02:50:00,
2013-01-10 19:55:00,46.4,28.8,29.92,SE,138,0.0,0.0,50,0.00,,,0.00,Wunderground v.1.15,2013-01-11 02:55:00,
2013-01-10 20:00:00,46.2,28.6,29.93,SE,138,0.0,0.0,50,0.00,,,0.00,Wunderground v.1.15,2013-01-11 03:00:00,
2013-01-10 20:05:00,46.1,28.5,29.88,SE,138,0.0,0.0,50,0.00,,,0.00,Wunderground v.1.15,2013-01-11 03:05:00,
2013-01-10 20:15:00,46.1,29.0,29.88,SSE,163,0.0,0.0,51,0.00,,,0.00,Wunderground v.1.15,2013-01-11 03:15:00,
2013-01-10 20:20:00,46.1,29.0,29.88,SE,141,0.0,3.0,51,0.00,,,0.00,Wunderground v.1.15,2013-01-11 03:20:00,
2013-01-10 20:25:00,46.2,29.1,29.87,SE,134,0.0,3.0,51,0.00,,,0.00,Wunderground v.1.15,2013-01-11 03:25:00,
2013-01-10 20:30:00,46.2,29.1,29.87,SE,133,0.0,1.0,51,0.00,,,0.00,Wunderground v.1.15,2013-01-11 03:30:00,
2013-01-10 20:35:00,46.4,29.2,29.87,SE,141,0.0,1.0,51,0.00,,,0.00,Wunderground v.1.15,2013-01-11 03:35:00,
2013-01-10 20:45:00,47.4,29.2,29.86,ESE,119,1.0,1.0,49,0.00,,,0.00,Wunderground v.1.15,2013-01-11 03:45:00,
2013-01-10 20:50:00,47.9,29.1,29.86,SE,134,1.0,1.0,48,0.00,,,0.00,Wunderground v.1.15,2013-01-11 03:50:00,
2013-01-10 20:55:00,48.0,29.2,29.86,SW,229,0.0,1.0,48,0.00,,,0.00,Wunderground v.1.15,2013-01-11 03:55:00,
2013-01-10 21:00:00,48.1,28.8,29.86,ESE,105,0.0,0.0,47,0.00,,,0.00,Wunderground v.1.15,2013-01-11 04:00:00,
2013-01-10 21:05:00,48.5,29.2,29.84,ESE,114,0.0,6.0,47,0.00,,,0.00,Wunderground v.1.15,2013-01-11 04:05:00,
2013-01-10 21:15:00,49.2,28.7,29.83,ESE,114,0.0,1.0,45,0.00,,,0.00,Wunderground v.1.15,2013-01-11 04:15:00,
2013-01-10 21:20:00,49.5,28.5,29.82,SE,125,0.0,0.0,44,0.00,,,0.00,Wunderground v.1.15,2013-01-11 04:20:00,
2013-01-10 21:30:00,50.0,28.4,29.82,SE,126,0.0,0.0,43,0.00,,,0.00,Wunderground v.1.15,2013-01-11 04:30:00,
2013-01-10 21:35:00,50.1,27.9,29.82,ESE,121,0.0,0.0,42,0.00,,,0.00,Wunderground v.1.15,2013-01-11 04:35:00,
2013-01-10 21:45:00,50.1,27.9,29.82,SE,132,0.0,0.0,42,0.00,,,0.00,Wunderground v.1.15,2013-01-11 04:45:00,
2013-01-10 21:50:00,50.0,27.2,29.82,SE,130,0.0,0.0,41,0.00,,,0.00,Wunderground v.1.15,2013-01-11 04:50:00,
2013-01-10 21:55:00,50.0,27.2,29.83,ESE,109,0.0,0.0,41,0.00,,,0.00,Wunderground v.1.15,2013-01-11 04:55:00,
2013-01-10 22:00:00,50.0,27.2,29.83,East,99,0.0,0.0,41,0.00,,,0.00,Wunderground v.1.15,2013-01-11 05:00:00,
2013-01-10 22:05:00,50.2,27.4,29.79,ESE,114,0.0,0.0,41,0.00,,,0.00,Wunderground v.1.15,2013-01-11 05:05:00,
2013-01-10 22:10:00,50.1,27.3,29.79,ESE,105,0.0,0.0,41,0.00,,,0.00,Wunderground v.1.15,2013-01-11 05:10:00,
2013-01-10 22:15:00,50.1,27.9,29.79,SE,131,0.0,0.0,42,0.00,,,0.00,Wunderground v.1.15,2013-01-11 05:15:00,
2013-01-10 22:20:00,49.9,27.7,29.78,SE,127,0.0,0.0,42,0.00,,,0.00,Wunderground v.1.15,2013-01-11 05:20:00,
2013-01-10 22:25:00,49.7,27.5,29.78,SE,133,0.0,0.0,42,0.00,,,0.00,Wunderground v.1.15,2013-01-11 05:25:00,
2013-01-10 22:30:00,49.7,27.5,29.78,ESE,117,0.0,0.0,42,0.00,,,0.00,Wunderground v.1.15,2013-01-11 05:30:00,
2013-01-10 22:40:00,49.8,27.6,29.77,SE,140,2.0,6.0,42,0.00,,,0.00,Wunderground v.1.15,2013-01-11 05:40:00,
2013-01-10 22:45:00,50.0,27.8,29.77,SE,136,3.0,6.0,42,0.00,,,0.00,Wunderground v.1.15,2013-01-11 05:45:00,
2013-01-10 22:50:00,50.2,28.0,29.77,SE,145,4.0,6.0,42,0.00,,,0.00,Wunderground v.1.15,2013-01-11 05:50:00,
2013-01-10 23:00:00,50.4,28.1,29.76,SE,138,3.0,3.0,42,0.00,,,0.00,Wunderground v.1.15,2013-01-11 06:00:00,
2013-01-10 23:05:00,50.4,28.1,29.76,SE,136,2.0,3.0,42,0.00,,,0.00,Wunderground v.1.15,2013-01-11 06:05:00,
2013-01-10 23:15:00,50.5,27.7,29.75,SE,140,2.0,5.0,41,0.00,,,0.00,Wunderground v.1.15,2013-01-11 06:15:00,
2013-01-10 23:20:00,50.7,27.8,29.74,SE,125,3.0,3.0,41,0.00,,,0.00,Wunderground v.1.15,2013-01-11 06:20:00,
2013-01-10 23:25:00,50.8,27.3,29.74,SE,141,4.0,6.0,40,0.00,,,0.00,Wunderground v.1.15,2013-01-11 06:25:00,
2013-01-10 23:30:00,50.8,27.3,29.75,SE,140,3.0,3.0,40,0.00,,,0.00,Wunderground v.1.15,2013-01-11 06:30:00,
2013-01-10 23:35:00,50.7,27.2,29.75,SE,130,2.0,3.0,40,0.00,,,0.00,Wunderground v.1.15,2013-01-11 06:35:00,
2013-01-10 23:40:00,50.6,27.1,29.75,SE,125,1.0,1.0,40,0.00,,,0.00,Wunderground v.1.15,2013-01-11 06:40:00,
2013-01-10 23:45:00,50.4,27.0,29.75,East,82,1.0,4.0,40,0.00,,,0.00,Wunderground v.1.15,2013-01-11 06:45:00,
2013-01-10 23:55:00,50.0,26.6,29.75,ESE,117,0.0,1.0,40,0.00,,,0.00,Wunderground v.1.15,2013-01-11 06:55:00,